Location: Beuerbach
(48.1459°N, 10.9174°E)
Time: 00:09:59
(UTC+00:00)

Meteor 1-21 - Pass Details

Date: 11 August 2024
Orbit: 845 x 885 km, 81.2° (Epoch: 09 September)

Event Time Altitude Azimuth Distance (km) Brightness Sun altitude
Rises 00:22:27 0° 348° (NNW) 3,418 8.3 -25.2°
Reaches altitude 10° 00:24:52 10° 348° (NNW) 2,479 7.4 -25.1°
Maximum altitude 00:30:30 89° 262° (W) 856 4.1 -24.8°
Enters shadow 00:31:29 63° 171° (S) 947 4.1 -24.8°
